Location: Battery Park City
(40.7115°N, 74.0163°W)
Time: 19:54:08
(UTC+00:00)

STARLINK-60 - Pass Details

Date: 08 December 2019
Orbit: 412 x 419 km, 53.0° (Epoch: 18 January)

Event Time Altitude Azimuth Distance (km) Brightness Sun altitude
Rises 22:11:54 0° 211° (SSW) 2,371 7.8 -8.2°
Reaches altitude 10° 22:14:05 10° 202° (SSW) 1,508 6.6 -8.6°
Maximum altitude 22:17:13 36° 134° (SE) 691 3.9 -9.1°
Enters shadow 22:19:48 14° 71° (ENE) 1,300 4.8 -9.6°
